Time,TemperatureF,DewpointF,PressureIn,WindDirection,WindDirectionDegrees,WindSpeedMPH,WindSpeedGustMPH,Humidity,HourlyPrecipIn,Conditions,Clouds,dailyrainin,SoftwareType,DateUTC
2013-07-15 08:20:00,82.8,58.0,30.09,NE,43,2.0,4.0,43,0.00,,,0.00,Wunderground v.1.15,2013-07-15 15:20:00,
2013-07-15 08:30:00,82.2,58.1,30.09,NNE,20,2.0,3.0,44,0.00,,,0.00,Wunderground v.1.15,2013-07-15 15:30:00,
2013-07-15 08:40:00,82.6,57.8,30.09,East,91,2.0,2.0,43,0.00,,,0.00,Wunderground v.1.15,2013-07-15 15:40:00,
2013-07-15 08:50:00,83.2,57.7,30.09,NE,41,2.0,2.0,42,0.00,,,0.00,Wunderground v.1.15,2013-07-15 15:50:00,
2013-07-15 09:00:00,83.8,57.6,30.09,ENE,61,3.0,3.0,41,0.00,,,0.00,Wunderground v.1.15,2013-07-15 16:00:00,
2013-07-15 09:10:00,83.8,58.9,30.09,East,84,2.0,2.0,43,0.00,,,0.00,Wunderground v.1.15,2013-07-15 16:10:00,
2013-07-15 09:30:00,81.7,58.3,30.09,ENE,62,2.0,2.0,45,0.00,,,0.00,Wunderground v.1.15,2013-07-15 16:30:00,
2013-07-15 09:40:00,80.9,58.2,30.09,NE,51,2.0,2.0,46,0.00,,,0.00,Wunderground v.1.15,2013-07-15 16:40:00,
2013-07-15 09:50:00,81.1,58.4,30.09,North,9,1.0,3.0,46,0.00,,,0.00,Wunderground v.1.15,2013-07-15 16:50:00,
2013-07-15 10:00:00,81.3,58.5,30.09,ENE,65,1.0,1.0,46,0.00,,,0.00,Wunderground v.1.15,2013-07-15 17:00:00,
2013-07-15 10:10:00,82.2,58.7,30.09,North,349,1.0,1.0,45,0.00,,,0.00,Wunderground v.1.15,2013-07-15 17:10:00,
2013-07-15 10:20:00,83.4,58.6,30.09,NW,306,1.0,2.0,43,0.00,,,0.00,Wunderground v.1.15,2013-07-15 17:20:00,
2013-07-15 10:30:00,84.8,57.8,30.09,NNW,337,1.0,2.0,40,0.00,,,0.00,Wunderground v.1.15,2013-07-15 17:30:00,
2013-07-15 10:40:00,86.2,57.6,30.09,NNW,345,1.0,1.0,38,0.00,,,0.00,Wunderground v.1.15,2013-07-15 17:40:00,
2013-07-15 10:50:00,87.0,58.3,30.09,SSE,164,1.0,1.0,38,0.00,,,0.00,Wunderground v.1.15,2013-07-15 17:50:00,
2013-07-15 11:00:00,87.5,58.0,30.08,SE,131,1.0,1.0,37,0.00,,,0.00,Wunderground v.1.15,2013-07-15 18:00:00,
2013-07-15 11:10:00,88.3,58.0,30.09,SE,143,1.0,2.0,36,0.00,,,0.00,Wunderground v.1.15,2013-07-15 18:10:00,
2013-07-15 11:20:00,88.6,56.6,30.08,ESE,121,1.0,1.0,34,0.00,,,0.00,Wunderground v.1.15,2013-07-15 18:20:00,
2013-07-15 11:30:00,89.3,56.4,30.08,SSE,152,1.0,1.0,33,0.00,,,0.00,Wunderground v.1.15,2013-07-15 18:30:00,
2013-07-15 11:40:00,89.4,57.3,30.08,NNE,13,2.0,2.0,34,0.00,,,0.00,Wunderground v.1.15,2013-07-15 18:40:00,
2013-07-15 11:50:00,89.5,57.4,30.07,East,90,2.0,2.0,34,0.00,,,0.00,Wunderground v.1.15,2013-07-15 18:50:00,
2013-07-15 12:00:00,89.5,57.4,30.07,ESE,116,1.0,2.0,34,0.00,,,0.00,Wunderground v.1.15,2013-07-15 19:00:00,
2013-07-15 12:10:00,90.8,57.7,30.07,ESE,114,1.0,2.0,33,0.00,,,0.00,Wunderground v.1.15,2013-07-15 19:10:00,
2013-07-15 12:20:00,90.9,57.0,30.06,East,93,2.0,2.0,32,0.00,,,0.00,Wunderground v.1.15,2013-07-15 19:20:00,
2013-07-15 12:30:00,91.9,56.9,30.06,SW,224,2.0,3.0,31,0.00,,,0.00,Wunderground v.1.15,2013-07-15 19:30:00,
2013-07-15 12:40:00,92.3,57.3,30.05,SSE,160,3.0,4.0,31,0.00,,,0.00,Wunderground v.1.15,2013-07-15 19:40:00,
2013-07-15 12:50:00,92.4,55.5,30.05,SSE,157,2.0,2.0,29,0.00,,,0.00,Wunderground v.1.15,2013-07-15 19:50:00,
2013-07-15 13:00:00,91.3,56.4,30.04,South,189,1.0,3.0,31,0.00,,,0.00,Wunderground v.1.15,2013-07-15 20:00:00,
2013-07-15 13:10:00,91.0,57.0,30.04,SSE,162,1.0,2.0,32,0.00,,,0.00,Wunderground v.1.15,2013-07-15 20:10:00,
2013-07-15 13:20:00,90.5,55.7,30.03,SW,226,1.0,2.0,31,0.00,,,0.00,Wunderground v.1.15,2013-07-15 20:20:00,
2013-07-15 13:30:00,90.9,57.0,30.03,ESE,116,1.0,1.0,32,0.00,,,0.00,Wunderground v.1.15,2013-07-15 20:30:00,
2013-07-15 13:40:00,91.4,55.6,30.02,NE,49,0.0,1.0,30,0.00,,,0.00,Wunderground v.1.15,2013-07-15 20:40:00,
2013-07-15 13:50:00,91.7,55.9,30.01,ESE,105,1.0,2.0,30,0.00,,,0.00,Wunderground v.1.15,2013-07-15 20:50:00,
2013-07-15 14:00:00,91.1,55.3,30.00,NE,51,1.0,2.0,30,0.00,,,0.00,Wunderground v.1.15,2013-07-15 21:00:00,
2013-07-15 14:10:00,91.2,56.3,30.00,East,87,2.0,2.0,31,0.00,,,0.00,Wunderground v.1.15,2013-07-15 21:10:00,
2013-07-15 14:20:00,91.1,56.3,30.00,NE,46,1.0,1.0,31,0.00,,,0.00,Wunderground v.1.15,2013-07-15 21:20:00,
2013-07-15 14:30:00,90.9,56.1,30.00,SW,233,1.0,1.0,31,0.00,,,0.00,Wunderground v.1.15,2013-07-15 21:30:00,
2013-07-15 14:40:00,90.9,56.1,30.00,North,6,1.0,1.0,31,0.00,,,0.00,Wunderground v.1.15,2013-07-15 21:40:00,
2013-07-15 14:50:00,90.9,56.1,30.00,NNW,335,1.0,1.0,31,0.00,,,0.00,Wunderground v.1.15,2013-07-15 21:50:00,
2013-07-15 15:00:00,90.7,54.1,30.00,NW,311,3.0,6.0,29,0.00,,,0.00,Wunderground v.1.15,2013-07-15 22:00:00,
2013-07-15 15:10:00,90.1,53.6,29.99,NNW,341,7.0,11.0,29,0.00,,,0.00,Wunderground v.1.15,2013-07-15 22:10:00,
2013-07-15 15:20:00,90.2,54.6,29.99,WNW,290,6.0,10.0,30,0.00,,,0.00,Wunderground v.1.15,2013-07-15 22:20:00,
2013-07-15 15:31:00,90.4,54.7,29.99,North,349,8.0,11.0,30,0.00,,,0.00,Wunderground v.1.15,2013-07-15 22:31:00,
2013-07-15 15:40:00,90.5,53.9,29.99,NNW,342,7.0,7.0,29,0.00,,,0.00,Wunderground v.1.15,2013-07-15 22:40:00,
2013-07-15 15:50:00,91.2,53.5,29.99,West,278,6.0,7.0,28,0.00,,,0.00,Wunderground v.1.15,2013-07-15 22:50:00,
2013-07-15 16:00:00,90.3,53.7,29.99,WNW,295,8.0,8.0,29,0.00,,,0.00,Wunderground v.1.15,2013-07-15 23:00:00,
2013-07-15 16:10:00,89.0,55.3,29.99,NW,304,9.0,15.0,32,0.00,,,0.00,Wunderground v.1.15,2013-07-15 23:10:00,
2013-07-15 16:20:00,88.7,55.9,29.99,NNW,341,8.0,8.0,33,0.00,,,0.00,Wunderground v.1.15,2013-07-15 23:20:00,
2013-07-15 16:30:00,88.7,55.1,29.99,WNW,296,7.0,8.0,32,0.00,,,0.00,Wunderground v.1.15,2013-07-15 23:30:00,
2013-07-15 16:40:00,88.5,55.7,30.00,West,275,6.0,6.0,33,0.00,,,0.00,Wunderground v.1.15,2013-07-15 23:40:00,
2013-07-15 16:50:00,88.3,56.4,29.99,WNW,291,4.0,4.0,34,0.00,,,0.00,Wunderground v.1.15,2013-07-15 23:50:00,
2013-07-15 17:00:00,88.6,56.6,29.99,NE,56,2.0,2.0,34,0.00,,,0.00,Wunderground v.1.15,2013-07-16 00:00:00,
2013-07-15 17:10:00,88.4,56.5,30.00,West,274,1.0,3.0,34,0.00,,,0.00,Wunderground v.1.15,2013-07-16 00:10:00,
2013-07-15 17:20:00,87.9,56.8,29.99,WNW,303,3.0,6.0,35,0.00,,,0.00,Wunderground v.1.15,2013-07-16 00:20:00,
2013-07-15 17:30:00,87.0,57.6,30.00,WNW,290,7.0,8.0,37,0.00,,,0.00,Wunderground v.1.15,2013-07-16 00:30:00,
2013-07-15 17:40:00,86.0,57.4,30.00,WNW,300,7.0,8.0,38,0.00,,,0.00,Wunderground v.1.15,2013-07-16 00:40:00,
2013-07-15 17:50:00,85.8,57.3,30.00,NW,318,5.0,5.0,38,0.00,,,0.00,Wunderground v.1.15,2013-07-16 00:50:00,
2013-07-15 18:00:00,85.5,56.3,30.01,NNW,331,4.0,4.0,37,0.00,,,0.00,Wunderground v.1.15,2013-07-16 01:00:00,
2013-07-15 18:10:00,85.4,56.2,30.00,SSW,212,1.0,5.0,37,0.00,,,0.00,Wunderground v.1.15,2013-07-16 01:10:00,
2013-07-15 18:20:00,84.6,55.5,30.00,South,181,4.0,4.0,37,0.00,,,0.00,Wunderground v.1.15,2013-07-16 01:20:00,
2013-07-15 18:30:00,84.3,55.9,30.01,NW,309,2.0,2.0,38,0.00,,,0.00,Wunderground v.1.15,2013-07-16 01:30:00,
2013-07-15 18:40:00,84.4,55.3,30.01,WNW,302,3.0,3.0,37,0.00,,,0.00,Wunderground v.1.15,2013-07-16 01:40:00,
2013-07-15 18:50:00,84.2,55.8,30.01,SSE,153,0.0,1.0,38,0.00,,,0.00,Wunderground v.1.15,2013-07-16 01:50:00,
2013-07-15 19:00:00,83.8,55.5,30.01,East,100,1.0,1.0,38,0.00,,,0.00,Wunderground v.1.15,2013-07-16 02:00:00,
2013-07-15 19:10:00,83.6,56.0,30.02,ESE,110,1.0,1.0,39,0.00,,,0.00,Wunderground v.1.15,2013-07-16 02:10:00,
2013-07-15 19:20:00,82.9,56.1,30.02,ENE,63,2.0,3.0,40,0.00,,,0.00,Wunderground v.1.15,2013-07-16 02:20:00,
2013-07-15 19:30:00,81.7,57.0,30.02,ENE,60,1.0,1.0,43,0.00,,,0.00,Wunderground v.1.15,2013-07-16 02:30:00,
2013-07-15 19:40:00,80.8,57.5,30.03,East,89,0.0,0.0,45,0.00,,,0.00,Wunderground v.1.15,2013-07-16 02:40:00,
2013-07-15 19:50:00,80.0,57.4,30.03,NNW,340,1.0,2.0,46,0.00,,,0.00,Wunderground v.1.15,2013-07-16 02:50:00,
2013-07-15 20:00:00,79.4,57.4,30.03,North,354,4.0,4.0,47,0.00,,,0.00,Wunderground v.1.15,2013-07-16 03:00:00,
2013-07-15 20:10:00,78.7,57.9,30.03,NNW,347,3.0,3.0,49,0.00,,,0.00,Wunderground v.1.15,2013-07-16 03:10:00,
2013-07-15 20:20:00,78.1,57.9,30.03,NNW,327,4.0,4.0,50,0.00,,,0.00,Wunderground v.1.15,2013-07-16 03:20:00,
2013-07-15 20:30:00,77.7,57.6,30.04,North,359,2.0,2.0,50,0.00,,,0.00,Wunderground v.1.15,2013-07-16 03:30:00,
2013-07-15 20:50:00,77.0,58.0,30.05,NW,323,0.0,0.0,52,0.00,,,0.00,Wunderground v.1.15,2013-07-16 03:50:00,
2013-07-15 21:00:00,76.7,57.7,30.06,NW,323,0.0,0.0,52,0.00,,,0.00,Wunderground v.1.15,2013-07-16 04:00:00,
2013-07-15 21:10:00,76.3,57.4,30.07,NW,323,0.0,0.0,52,0.00,,,0.00,Wunderground v.1.15,2013-07-16 04:10:00,
2013-07-15 21:20:00,76.1,57.7,30.08,NW,320,0.0,0.0,53,0.00,,,0.00,Wunderground v.1.15,2013-07-16 04:20:00,
2013-07-15 21:30:00,76.2,57.8,30.08,SSE,167,0.0,0.0,53,0.00,,,0.00,Wunderground v.1.15,2013-07-16 04:30:00,
2013-07-15 21:40:00,76.2,57.3,30.08,West,279,0.0,0.0,52,0.00,,,0.00,Wunderground v.1.15,2013-07-16 04:40:00,
2013-07-15 21:50:00,76.6,57.7,30.07,WNW,293,2.0,4.0,52,0.00,,,0.00,Wunderground v.1.15,2013-07-16 04:50:00,
2013-07-15 22:00:00,77.3,57.8,30.08,WNW,300,5.0,5.0,51,0.00,,,0.00,Wunderground v.1.15,2013-07-16 05:00:00,
2013-07-15 22:10:00,77.7,56.4,30.08,NW,312,2.0,2.0,48,0.00,,,0.00,Wunderground v.1.15,2013-07-16 05:10:00,
2013-07-15 22:20:00,77.5,57.4,30.08,South,186,2.0,2.0,50,0.00,,,0.00,Wunderground v.1.15,2013-07-16 05:20:00,
2013-07-15 22:30:00,77.5,57.4,30.09,SW,217,2.0,2.0,50,0.00,,,0.00,Wunderground v.1.15,2013-07-16 05:30:00,
2013-07-15 22:40:00,77.5,57.9,30.08,SSE,168,2.0,2.0,51,0.00,,,0.00,Wunderground v.1.15,2013-07-16 05:40:00,
2013-07-15 22:50:00,77.1,57.6,30.09,WSW,241,2.0,3.0,51,0.00,,,0.00,Wunderground v.1.15,2013-07-16 05:50:00,